Time,TemperatureF,DewpointF,PressureIn,WindDirection,WindDirectionDegrees,WindSpeedMPH,WindSpeedGustMPH,Humidity,HourlyPrecipIn,Conditions,Clouds,dailyrainin,SoftwareType,DateUTC
2013-05-20 00:02:00,77.0,67.0,29.67,ENE,59,1.0,9.0,72,0.00,,,0.02,,2013-05-20 05:02:00,
2013-05-20 00:12:00,77.0,67.0,29.67,ENE,59,1.0,9.0,72,0.00,,,0.02,,2013-05-20 05:12:00,
2013-05-20 00:22:00,77.0,67.0,29.67,WSW,238,1.0,9.0,72,0.00,,,0.02,,2013-05-20 05:22:00,
2013-05-20 00:32:00,77.0,67.0,29.68,ENE,61,0.0,9.0,72,0.00,,,0.02,,2013-05-20 05:32:00,
2013-05-20 00:42:00,77.0,67.0,29.68,ENE,61,0.0,9.0,72,0.00,,,0.02,,2013-05-20 05:42:00,
2013-05-20 00:51:00,76.0,66.0,29.68,North,360,1.0,8.0,72,0.00,,,0.02,,2013-05-20 05:51:00,
2013-05-20 01:01:00,76.0,67.0,29.67,SW,227,1.0,5.0,73,0.00,,,0.02,,2013-05-20 06:01:00,
2013-05-20 01:11:00,76.0,67.0,29.67,SW,227,1.0,5.0,73,0.00,,,0.02,,2013-05-20 06:11:00,
2013-05-20 01:21:00,76.0,67.0,29.67,West,263,1.0,9.0,74,0.00,,,0.02,,2013-05-20 06:21:00,
2013-05-20 01:32:00,75.0,66.0,29.68,ENE,69,1.0,10.0,74,0.00,,,0.02,,2013-05-20 06:32:00,
2013-05-20 01:42:00,75.0,66.0,29.68,ENE,69,1.0,10.0,74,0.00,,,0.02,,2013-05-20 06:42:00,
2013-05-20 01:52:00,75.0,67.0,29.68,North,360,0.0,9.0,75,0.00,,,0.02,,2013-05-20 06:52:00,
2013-05-20 02:02:00,75.0,67.0,29.68,ENE,72,1.0,9.0,75,0.00,,,0.02,,2013-05-20 07:02:00,
2013-05-20 02:12:00,75.0,67.0,29.68,ENE,72,1.0,9.0,75,0.00,,,0.02,,2013-05-20 07:12:00,
2013-05-20 02:21:00,75.0,67.0,29.68,NNE,24,0.0,7.0,75,0.00,,,0.02,,2013-05-20 07:21:00,
2013-05-20 02:32:00,74.0,66.0,29.67,NNE,17,1.0,6.0,75,0.00,,,0.02,,2013-05-20 07:32:00,
2013-05-20 02:42:00,74.0,66.0,29.67,NNE,17,1.0,6.0,75,0.00,,,0.02,,2013-05-20 07:42:00,
2013-05-20 02:52:00,74.0,66.0,29.67,WNW,302,1.0,5.0,75,0.00,,,0.02,,2013-05-20 07:52:00,
2013-05-20 03:01:00,74.0,66.0,29.67,NE,38,0.0,6.0,75,0.00,,,0.02,,2013-05-20 08:01:00,
2013-05-20 03:11:00,74.0,66.0,29.67,NE,38,0.0,6.0,75,0.00,,,0.02,,2013-05-20 08:11:00,
2013-05-20 03:21:00,74.0,66.0,29.67,ENE,57,1.0,5.0,75,0.00,,,0.02,,2013-05-20 08:21:00,
2013-05-20 03:32:00,74.0,66.0,29.67,NE,51,1.0,5.0,75,0.00,,,0.02,,2013-05-20 08:32:00,
2013-05-20 03:41:00,74.0,66.0,29.67,NE,51,1.0,5.0,75,0.00,,,0.02,,2013-05-20 08:41:00,
2013-05-20 03:51:00,73.0,65.0,29.67,SE,143,1.0,5.0,76,0.00,,,0.02,,2013-05-20 08:51:00,
2013-05-20 04:02:00,73.0,65.0,29.67,NE,55,0.0,3.0,76,0.00,,,0.02,,2013-05-20 09:02:00,
2013-05-20 04:12:00,73.0,65.0,29.67,NE,55,0.0,3.0,76,0.00,,,0.02,,2013-05-20 09:12:00,
2013-05-20 04:21:00,73.0,65.0,29.67,NNE,28,0.0,4.0,76,0.00,,,0.02,,2013-05-20 09:21:00,
2013-05-20 04:32:00,73.0,65.0,29.67,NNE,24,0.0,4.0,76,0.00,,,0.02,,2013-05-20 09:32:00,
2013-05-20 04:43:00,73.0,65.0,29.67,NNE,24,0.0,4.0,76,0.00,,,0.02,,2013-05-20 09:43:00,
2013-05-20 04:52:00,73.0,65.0,29.68,North,355,0.0,5.0,77,0.00,,,0.02,,2013-05-20 09:52:00,
2013-05-20 05:03:00,73.0,66.0,29.69,NE,47,0.0,6.0,78,0.00,,,0.02,,2013-05-20 10:03:00,
2013-05-20 05:12:00,73.0,66.0,29.69,NE,47,0.0,6.0,78,0.00,,,0.02,,2013-05-20 10:12:00,
2013-05-20 05:22:00,73.0,66.0,29.69,NNE,18,0.0,5.0,78,0.00,,,0.02,,2013-05-20 10:22:00,
2013-05-20 05:32:00,72.0,65.0,29.69,NNE,27,1.0,5.0,79,0.00,,,0.02,,2013-05-20 10:32:00,
2013-05-20 05:42:00,72.0,65.0,29.69,NNE,27,1.0,5.0,79,0.00,,,0.02,,2013-05-20 10:42:00,
2013-05-20 05:52:00,72.0,65.0,29.69,WNW,283,1.0,4.0,79,0.00,,,0.02,,2013-05-20 10:52:00,
2013-05-20 06:02:00,72.0,65.0,29.69,NE,35,0.0,4.0,80,0.00,,,0.02,,2013-05-20 11:02:00,
2013-05-20 06:12:00,72.0,65.0,29.69,NE,35,0.0,4.0,80,0.00,,,0.02,,2013-05-20 11:12:00,
2013-05-20 06:21:00,71.0,65.0,29.71,NNE,28,0.0,2.0,81,0.00,,,0.02,,2013-05-20 11:21:00,
2013-05-20 06:32:00,70.0,65.0,29.73,NE,36,0.0,1.0,83,0.00,,,0.02,,2013-05-20 11:32:00,
2013-05-20 06:42:00,70.0,65.0,29.73,NE,36,0.0,1.0,83,0.00,,,0.02,,2013-05-20 11:42:00,
2013-05-20 06:51:00,69.0,65.0,29.73,NE,36,0.0,2.0,87,0.00,,,0.02,,2013-05-20 11:51:00,
2013-05-20 07:01:00,68.0,65.0,29.73,NE,36,0.0,1.0,89,0.00,,,0.02,,2013-05-20 12:01:00,
2013-05-20 07:11:00,68.0,65.0,29.73,NE,36,0.0,1.0,89,0.00,,,0.02,,2013-05-20 12:11:00,
2013-05-20 07:21:00,68.0,65.0,29.74,NE,36,0.0,0.0,91,0.00,,,0.02,,2013-05-20 12:21:00,
2013-05-20 07:32:00,69.0,66.0,29.75,NE,36,0.0,0.0,90,0.00,,,0.02,,2013-05-20 12:32:00,
2013-05-20 07:41:00,69.0,66.0,29.75,NE,36,0.0,0.0,90,0.00,,,0.02,,2013-05-20 12:41:00,
2013-05-20 07:52:00,70.0,66.0,29.75,ENE,63,0.0,4.0,86,0.00,,,0.02,,2013-05-20 12:52:00,
2013-05-20 08:01:00,71.0,66.0,29.75,ENE,65,0.0,1.0,85,0.00,,,0.02,,2013-05-20 13:01:00,
2013-05-20 08:11:00,71.0,66.0,29.75,ENE,65,0.0,1.0,85,0.00,,,0.02,,2013-05-20 13:11:00,
2013-05-20 08:22:00,71.0,66.0,29.76,ENE,65,0.0,2.0,84,0.00,,,0.02,,2013-05-20 13:22:00,
2013-05-20 08:31:00,71.0,66.0,29.75,ENE,57,1.0,5.0,83,0.00,,,0.02,,2013-05-20 13:31:00,
2013-05-20 08:41:00,71.0,66.0,29.75,ENE,57,1.0,5.0,83,0.00,,,0.02,,2013-05-20 13:41:00,
2013-05-20 08:52:00,71.0,66.0,29.75,North,11,0.0,4.0,84,0.00,,,0.02,,2013-05-20 13:52:00,
2013-05-20 09:01:00,71.0,66.0,29.75,NE,34,1.0,5.0,83,0.00,,,0.02,,2013-05-20 14:01:00,
2013-05-20 09:11:00,71.0,66.0,29.75,NE,34,1.0,5.0,83,0.00,,,0.02,,2013-05-20 14:11:00,
2013-05-20 09:22:00,71.0,66.0,29.74,ENE,77,1.0,5.0,83,0.00,,,0.02,,2013-05-20 14:22:00,
2013-05-20 09:32:00,71.0,66.0,29.74,NNE,31,0.0,6.0,83,0.00,,,0.02,,2013-05-20 14:32:00,
2013-05-20 09:42:00,71.0,66.0,29.74,NNE,31,0.0,6.0,83,0.00,,,0.02,,2013-05-20 14:42:00,
2013-05-20 09:52:00,71.0,66.0,29.75,NE,55,1.0,5.0,83,0.00,,,0.02,,2013-05-20 14:52:00,
2013-05-20 10:01:00,71.0,66.0,29.75,NNE,30,0.0,4.0,84,0.00,,,0.02,,2013-05-20 15:01:00,
2013-05-20 10:11:00,71.0,66.0,29.75,NNE,30,0.0,4.0,84,0.00,,,0.02,,2013-05-20 15:11:00,
2013-05-20 10:21:00,71.0,66.0,29.75,NE,51,0.0,4.0,84,0.00,,,0.02,,2013-05-20 15:21:00,
2013-05-20 10:33:00,71.0,66.0,29.75,ENE,57,0.0,5.0,84,0.00,,,0.02,,2013-05-20 15:33:00,
2013-05-20 10:42:00,71.0,66.0,29.75,ENE,57,0.0,5.0,84,0.00,,,0.02,,2013-05-20 15:42:00,
2013-05-20 10:53:00,71.0,66.0,29.76,ENE,57,1.0,4.0,84,0.00,,,0.02,,2013-05-20 15:53:00,
2013-05-20 11:03:00,71.0,66.0,29.75,ENE,74,0.0,5.0,84,0.00,,,0.02,,2013-05-20 16:03:00,
2013-05-20 11:12:00,71.0,66.0,29.75,ENE,74,0.0,5.0,84,0.00,,,0.02,,2013-05-20 16:12:00,
2013-05-20 11:22:00,71.0,66.0,29.76,NNE,24,1.0,6.0,84,0.00,,,0.02,,2013-05-20 16:22:00,
2013-05-20 11:33:00,71.0,66.0,29.76,ENE,73,0.0,8.0,85,0.00,,,0.02,,2013-05-20 16:33:00,
2013-05-20 11:42:00,71.0,66.0,29.76,ENE,73,0.0,8.0,85,0.00,,,0.02,,2013-05-20 16:42:00,
2013-05-20 11:52:00,71.0,66.0,29.76,West,267,0.0,5.0,85,0.00,,,0.02,,2013-05-20 16:52:00,
2013-05-20 12:02:00,71.0,66.0,29.75,West,275,0.0,5.0,85,0.00,,,0.02,,2013-05-20 17:02:00,
2013-05-20 12:12:00,71.0,66.0,29.75,West,275,0.0,5.0,85,0.00,,,0.02,,2013-05-20 17:12:00,
2013-05-20 12:22:00,71.0,66.0,29.75,West,279,0.0,4.0,85,0.00,,,0.02,,2013-05-20 17:22:00,
2013-05-20 12:33:00,71.0,66.0,29.75,ENE,78,0.0,5.0,85,0.00,,,0.02,,2013-05-20 17:33:00,
2013-05-20 12:45:00,71.0,66.0,29.75,ENE,78,0.0,5.0,85,0.00,,,0.02,,2013-05-20 17:45:00,
2013-05-20 12:53:00,72.0,67.0,29.75,NE,53,1.0,5.0,85,0.00,,,0.02,,2013-05-20 17:53:00,
2013-05-20 13:02:00,72.0,67.0,29.74,NE,41,1.0,7.0,85,0.00,,,0.02,,2013-05-20 18:02:00,
2013-05-20 13:12:00,72.0,67.0,29.74,NE,41,1.0,7.0,85,0.00,,,0.02,,2013-05-20 18:12:00,
2013-05-20 13:23:00,72.0,67.0,29.74,NE,46,0.0,5.0,85,0.00,,,0.02,,2013-05-20 18:23:00,
2013-05-20 13:32:00,72.0,67.0,29.74,North,5,1.0,5.0,84,0.00,,,0.02,,2013-05-20 18:32:00,
2013-05-20 13:42:00,72.0,67.0,29.74,North,5,1.0,5.0,84,0.00,,,0.02,,2013-05-20 18:42:00,
2013-05-20 13:55:00,73.0,68.0,29.73,ENE,61,0.0,4.0,85,0.00,,,0.02,,2013-05-20 18:55:00,
2013-05-20 14:04:00,73.0,68.0,29.72,WSW,245,1.0,6.0,83,0.00,,,0.02,,2013-05-20 19:04:00,
2013-05-20 14:11:00,73.0,68.0,29.72,WSW,245,1.0,6.0,83,0.00,,,0.02,,2013-05-20 19:11:00,
2013-05-20 14:21:00,74.0,68.0,29.72,West,279,2.0,6.0,82,0.00,,,0.02,,2013-05-20 19:21:00,
2013-05-20 14:32:00,75.0,69.0,29.72,NW,306,1.0,8.0,82,0.00,,,0.02,,2013-05-20 19:32:00,
2013-05-20 14:41:00,75.0,69.0,29.72,NW,306,1.0,8.0,82,0.00,,,0.02,,2013-05-20 19:41:00,
2013-05-20 14:52:00,76.0,69.0,29.72,NE,37,1.0,8.0,79,0.00,,,0.02,,2013-05-20 19:52:00,
2013-05-20 15:01:00,76.0,70.0,29.72,NW,320,0.0,6.0,81,0.00,,,0.02,,2013-05-20 20:01:00,
2013-05-20 15:12:00,76.0,70.0,29.72,NW,320,0.0,6.0,81,0.00,,,0.02,,2013-05-20 20:12:00,
2013-05-20 15:21:00,76.0,69.0,29.72,NE,34,1.0,8.0,78,0.00,,,0.02,,2013-05-20 20:21:00,
2013-05-20 15:32:00,76.0,69.0,29.72,ESE,114,0.0,9.0,78,0.00,,,0.02,,2013-05-20 20:32:00,
2013-05-20 15:42:00,76.0,69.0,29.72,ESE,114,0.0,9.0,78,0.00,,,0.02,,2013-05-20 20:42:00,
2013-05-20 15:51:00,77.0,69.0,29.70,NW,326,2.0,8.0,77,0.00,,,0.02,,2013-05-20 20:51:00,
2013-05-20 16:01:00,77.0,70.0,29.69,NE,36,0.0,5.0,79,0.00,,,0.02,,2013-05-20 21:01:00,
2013-05-20 16:11:00,77.0,70.0,29.69,NE,36,0.0,5.0,79,0.00,,,0.02,,2013-05-20 21:11:00,
2013-05-20 16:21:00,77.0,69.0,29.68,NE,52,0.0,6.0,77,0.00,,,0.02,,2013-05-20 21:21:00,
2013-05-20 16:33:00,77.0,69.0,29.68,NE,52,0.0,6.0,77,0.00,,,0.02,,2013-05-20 21:33:00,
2013-05-20 16:43:00,77.0,69.0,29.67,North,355,0.0,8.0,77,0.00,,,0.02,,2013-05-20 21:43:00,
2013-05-20 16:53:00,77.0,69.0,29.67,North,355,0.0,8.0,77,0.00,,,0.02,,2013-05-20 21:53:00,
2013-05-20 17:02:00,77.0,70.0,29.66,WNW,300,0.0,6.0,79,0.00,,,0.02,,2013-05-20 22:02:00,
2013-05-20 17:12:00,77.0,70.0,29.66,WNW,300,0.0,6.0,79,0.00,,,0.02,,2013-05-20 22:12:00,
2013-05-20 17:23:00,76.0,69.0,29.67,NNW,348,0.0,5.0,80,0.00,,,0.02,,2013-05-20 22:23:00,
2013-05-20 17:33:00,76.0,69.0,29.67,NE,34,0.0,4.0,80,0.00,,,0.02,,2013-05-20 22:33:00,
2013-05-20 17:42:00,76.0,69.0,29.67,NE,34,0.0,4.0,80,0.00,,,0.02,,2013-05-20 22:42:00,
2013-05-20 17:52:00,76.0,69.0,29.67,SW,236,0.0,4.0,80,0.00,,,0.02,,2013-05-20 22:52:00,
2013-05-20 18:03:00,76.0,69.0,29.68,ENE,67,0.0,2.0,80,0.00,,,0.02,,2013-05-20 23:03:00,
2013-05-20 18:12:00,76.0,69.0,29.68,ENE,67,0.0,2.0,80,0.00,,,0.02,,2013-05-20 23:12:00,
2013-05-20 18:22:00,76.0,70.0,29.68,West,277,0.0,4.0,82,0.00,,,0.02,,2013-05-20 23:22:00,
2013-05-20 18:32:00,75.0,69.0,29.67,NE,39,0.0,4.0,83,0.00,,,0.02,,2013-05-20 23:32:00,
2013-05-20 18:42:00,75.0,69.0,29.67,NE,39,0.0,4.0,83,0.00,,,0.02,,2013-05-20 23:42:00,
2013-05-20 18:52:00,75.0,69.0,29.65,SW,236,0.0,6.0,83,0.00,,,0.02,,2013-05-20 23:52:00,
2013-05-20 19:01:00,75.0,69.0,29.64,ENE,57,0.0,4.0,83,0.00,,,0.02,,2013-05-21 00:01:00,
2013-05-20 19:11:00,75.0,69.0,29.64,ENE,57,0.0,4.0,83,0.00,,,0.02,,2013-05-21 00:11:00,
2013-05-20 19:21:00,75.0,69.0,29.66,NE,52,0.0,2.0,83,0.00,,,0.02,,2013-05-21 00:21:00,
2013-05-20 19:32:00,70.0,62.0,29.77,West,273,7.0,16.0,77,0.01,,,0.03,,2013-05-21 00:32:00,
2013-05-20 19:42:00,63.0,60.0,29.72,ENE,58,1.0,7.0,90,0.02,,,0.04,,2013-05-21 00:42:00,
2013-05-20 19:52:00,63.0,60.0,29.72,ENE,58,1.0,7.0,90,0.02,,,0.04,,2013-05-21 00:52:00,
2013-05-20 20:01:00,62.0,60.0,29.69,ENE,76,1.0,3.0,94,0.03,,,0.05,,2013-05-21 01:01:00,
2013-05-20 20:11:00,62.0,60.0,29.69,ENE,76,1.0,3.0,94,0.03,,,0.05,,2013-05-21 01:11:00,
2013-05-20 20:22:00,62.0,60.0,29.66,ENE,61,3.0,9.0,94,0.04,,,0.06,,2013-05-21 01:22:00,
2013-05-20 20:32:00,62.0,61.0,29.68,West,261,0.0,2.0,96,0.05,,,0.08,,2013-05-21 01:32:00,
2013-05-20 20:42:00,62.0,61.0,29.68,West,261,0.0,2.0,96,0.05,,,0.08,,2013-05-21 01:42:00,
2013-05-20 20:52:00,62.0,61.0,29.68,ENE,69,0.0,0.0,96,0.05,,,0.09,,2013-05-21 01:52:00,
2013-05-20 21:02:00,62.0,61.0,29.70,ENE,78,0.0,4.0,96,0.05,,,0.10,,2013-05-21 02:02:00,
2013-05-20 21:11:00,62.0,61.0,29.70,ENE,78,0.0,4.0,96,0.05,,,0.10,,2013-05-21 02:11:00,
2013-05-20 21:21:00,62.0,61.0,29.72,NW,323,0.0,1.0,97,0.04,,,0.11,,2013-05-21 02:21:00,
2013-05-20 21:32:00,62.0,61.0,29.73,East,82,0.0,2.0,97,0.04,,,0.11,,2013-05-21 02:32:00,
2013-05-20 21:42:00,62.0,61.0,29.73,East,82,0.0,2.0,97,0.04,,,0.11,,2013-05-21 02:42:00,
2013-05-20 21:52:00,62.0,61.0,29.73,ENE,68,0.0,2.0,97,0.04,,,0.12,,2013-05-21 02:52:00,
2013-05-20 22:02:00,62.0,61.0,29.70,ENE,69,0.0,1.0,97,0.04,,,0.13,,2013-05-21 03:02:00,
2013-05-20 22:11:00,62.0,61.0,29.70,ENE,69,0.0,1.0,97,0.04,,,0.13,,2013-05-21 03:11:00,
2013-05-20 22:21:00,62.0,61.0,29.71,ENE,66,0.0,4.0,97,0.05,,,0.15,,2013-05-21 03:21:00,
2013-05-20 22:33:00,62.0,61.0,29.73,NNE,22,0.0,0.0,98,0.05,,,0.16,,2013-05-21 03:33:00,
2013-05-20 22:43:00,64.0,63.0,29.78,West,277,6.0,11.0,96,0.06,,,0.18,,2013-05-21 03:43:00,
2013-05-20 22:53:00,64.0,63.0,29.78,West,277,6.0,11.0,96,0.06,,,0.18,,2013-05-21 03:53:00,
2013-05-20 23:03:00,64.0,63.0,29.75,ENE,61,2.0,6.0,95,0.06,,,0.19,,2013-05-21 04:03:00,
2013-05-20 23:13:00,64.0,63.0,29.75,ENE,61,2.0,6.0,95,0.06,,,0.19,,2013-05-21 04:13:00,
2013-05-20 23:23:00,64.0,59.0,29.71,ENE,71,5.0,11.0,85,0.06,,,0.21,,2013-05-21 04:23:00,
2013-05-20 23:33:00,63.0,58.0,29.68,ENE,63,5.0,16.0,84,0.08,,,0.23,,2013-05-21 04:33:00,
2013-05-20 23:42:00,63.0,58.0,29.68,ENE,63,5.0,16.0,84,0.08,,,0.23,,2013-05-21 04:42:00,
2013-05-20 23:52:00,64.0,58.0,29.76,NW,306,1.0,9.0,82,0.07,,,0.24,,2013-05-21 04:52:00,